Weather History for Las Cruces, NM

Change the Weather History Date:

Tuesday, February 12, 2013

  Actual Average Record
Temperature  
Mean Temperature 38 °F -  
Max Temperature 48 °F 56 °F 65 °F (2014)
Min Temperature 27 °F 33 °F 27 °F (2014)
Degree Days  
Heating Degree Days 28    
Moisture  
Dew Point 17 °F    
Average Humidity 52    
Maximum Humidity 96    
Minimum Humidity 16    
Precipitation  
Precipitation 0.00 in - - ()
Sea Level Pressure  
Sea Level Pressure 30.09 in    
Wind  
Wind Speed 10 mph (WNW)    
Max Wind Speed 20 mph    
Max Gust Speed 28 mph    
Visibility 10 miles    
Events      
Averages and records for this station are not official NWS values.
T = Trace of Precipitation, MM = Missing Value Source: NWS Daily Summary

Daily Weather History Graph

Daily Weather History Graph

Search for Another Location

Airport:

Trip Planner

Search our weather history database for the weather conditions in past years. The results will help you decide how hot, cold, wet, or windy it might be!

Date:

Astronomy

Feb. 12, 2013 Rise Set
Actual Time 6:52 AM MST 5:51 PM MST
Civil Twilight 6:27 AM MST 6:16 PM MST
Nautical Twilight 5:58 AM MST 6:45 PM MST
Astronomical Twilight 5:30 AM MST 7:14 PM MST
Moon 8:03 AM MST (2/12) 8:40 PM MST (2/12)
Length of Visible Light 11h 49m
Length of Day
10h 58m
Waxing Crescent, 8% of the Moon is Illuminated
Feb 12
Waxing Crescent
Feb 17
First Quarter
Feb 25
Full
Mar 4
Last Quarter
Mar 11
New

Hourly Weather History & Observations

Time (MST) Temp. Windchill Dew Point Humidity Pressure Visibility Wind Dir Wind Speed Gust Speed Precip Events Conditions
12:15 AM 34.2 °F 25.7 °F 32.0 °F 92% 29.97 in 10.0 mi West 11.5 mph - N/A   Overcast
12:35 AM 33.8 °F 25.8 °F 32.0 °F 93% 29.97 in 10.0 mi SW 10.4 mph - N/A   Mostly Cloudy
12:55 AM 33.8 °F 24.3 °F 32.4 °F 94% 29.97 in 10.0 mi WSW 13.8 mph - N/A   Mostly Cloudy
1:15 AM 32.9 °F 22.8 °F 31.8 °F 96% 29.98 in 10.0 mi WSW 15.0 mph 19.6 mph N/A   Scattered Clouds
1:35 AM 33.1 °F 22.6 °F 31.3 °F 93% 29.98 in 10.0 mi West 16.1 mph - N/A   Scattered Clouds
1:55 AM 32.5 °F 21.2 °F 30.6 °F 92% 29.99 in 10.0 mi West 18.4 mph 24.2 mph N/A   Scattered Clouds
2:15 AM 32.4 °F 21.3 °F 29.8 °F 90% 29.97 in 10.0 mi West 17.3 mph 27.6 mph N/A   Scattered Clouds
2:35 AM 32.0 °F 21.2 °F 29.1 °F 89% 29.99 in 10.0 mi WSW 16.1 mph - N/A   Clear
2:55 AM 31.6 °F 21.2 °F 28.4 °F 88% 29.99 in 10.0 mi West 15.0 mph - N/A   Scattered Clouds
3:15 AM 31.1 °F 18.9 °F 28.4 °F 90% 29.99 in 10.0 mi WSW 19.6 mph - N/A   Clear
3:35 AM 30.6 °F 19.4 °F 27.7 °F 89% 30.00 in 10.0 mi WSW 16.1 mph - N/A   Clear
3:55 AM 30.2 °F 20.2 °F 27.1 °F 88% 30.00 in 10.0 mi West 12.7 mph - N/A   Clear
4:15 AM 29.1 °F 18.9 °F 26.4 °F 90% 30.00 in 10.0 mi West 12.7 mph - N/A   Clear
4:35 AM 28.8 °F 18.4 °F 26.2 °F 90% 30.01 in 10.0 mi West 12.7 mph - N/A   Scattered Clouds
4:55 AM 29.1 °F 19.4 °F 26.1 °F 88% 30.02 in 10.0 mi West 11.5 mph - N/A   Scattered Clouds
5:15 AM 29.3 °F 21.5 °F 25.7 °F 86% 30.03 in 10.0 mi West 8.1 mph - N/A   Clear
5:35 AM 29.3 °F 24.3 °F 25.5 °F 86% 30.04 in 10.0 mi West 4.6 mph - N/A   Mostly Cloudy
5:55 AM 30.0 °F 24.1 °F 25.7 °F 84% 30.04 in 10.0 mi West 5.8 mph - N/A   Overcast
6:15 AM 30.2 °F 25.4 °F 25.7 °F 83% 30.05 in 10.0 mi WNW 4.6 mph - N/A   Overcast
6:35 AM 29.3 °F 22.3 °F 25.2 °F 85% 30.06 in 10.0 mi West 6.9 mph - N/A   Scattered Clouds
6:55 AM 27.7 °F 20.4 °F 24.4 °F 88% 30.07 in 10.0 mi West 6.9 mph - N/A   Clear
7:15 AM 27.5 °F 22.2 °F 24.4 °F 88% 30.08 in 10.0 mi West 4.6 mph - N/A   Clear
7:35 AM 28.8 °F 22.6 °F 25.2 °F 86% 30.10 in 10.0 mi WSW 5.8 mph - N/A   Clear
7:55 AM 30.4 °F 22.9 °F 25.5 °F 82% 30.10 in 10.0 mi West 8.1 mph - N/A   Scattered Clouds
8:15 AM 32.9 °F 28.5 °F 26.2 °F 76% 30.11 in 10.0 mi WNW 4.6 mph - N/A   Scattered Clouds
8:35 AM 35.6 °F 29.9 °F 25.5 °F 67% 30.12 in 10.0 mi NW 6.9 mph - N/A   Clear
8:55 AM 37.4 °F 30.8 °F 23.7 °F 58% 30.12 in 10.0 mi NNW 9.2 mph - N/A   Clear
9:15 AM 39.0 °F 33.4 °F 22.3 °F 51% 30.13 in 10.0 mi NNW 8.1 mph - N/A   Clear
9:35 AM 39.7 °F 36.5 °F 24.4 °F 54% 30.14 in 10.0 mi NNE 4.6 mph 9.2 mph N/A   Scattered Clouds
9:55 AM 40.3 °F 36.3 °F 22.6 °F 49% 30.15 in 10.0 mi NW 5.8 mph - N/A   Scattered Clouds
10:15 AM 41.4 °F 36.8 °F 18.7 °F 40% 30.15 in 10.0 mi NNW 6.9 mph - N/A   Scattered Clouds
10:35 AM 41.9 °F 39.0 °F 16.9 °F 36% 30.15 in 10.0 mi NNW 4.6 mph - N/A   Scattered Clouds
10:55 AM 42.1 °F 36.6 °F 16.0 °F 35% 30.15 in 10.0 mi North 9.2 mph 16.1 mph N/A   Scattered Clouds
11:15 AM 43.3 °F 37.7 °F 16.2 °F 33% 30.15 in 10.0 mi NNW 10.4 mph - N/A   Scattered Clouds
11:35 AM 43.5 °F 39.4 °F 17.1 °F 35% 30.15 in 10.0 mi North 6.9 mph - N/A   Scattered Clouds
11:55 AM 44.1 °F 39.0 °F 16.0 °F 32% 30.14 in 10.0 mi North 9.2 mph - N/A   Scattered Clouds
12:15 PM 44.8 °F 40.4 °F 13.1 °F 28% 30.12 in 10.0 mi NW 8.1 mph 17.3 mph N/A   Clear
12:35 PM 44.6 °F 42.2 °F 13.3 °F 28% 30.12 in 10.0 mi North 4.6 mph 19.6 mph N/A   Clear
12:55 PM 46.2 °F 41.2 °F 11.8 °F 25% 30.11 in 10.0 mi NW 10.4 mph - N/A   Clear
1:15 PM 46.8 °F - 12.2 °F 25% 30.10 in 10.0 mi NW 6.9 mph - N/A   Clear
1:35 PM 46.6 °F - 11.5 °F 24% 30.09 in 10.0 mi NW 5.8 mph - N/A   Clear
1:55 PM 47.5 °F - 9.0 °F 21% 30.08 in 10.0 mi NNW 4.6 mph - N/A   Clear
2:15 PM 47.5 °F - 8.6 °F 21% 30.08 in 10.0 mi North 5.8 mph - N/A   Clear
2:35 PM 47.8 °F - 7.0 °F 19% 30.08 in 10.0 mi NNW 6.9 mph - N/A   Clear
3:15 PM 48.0 °F - 5.0 °F 17% 30.08 in 10.0 mi NW 9.2 mph - N/A   Clear
3:35 PM 47.3 °F - 5.9 °F 18% 30.08 in 10.0 mi Calm Calm - N/A   Clear
3:55 PM 48.2 °F - 5.0 °F 17% 30.08 in 10.0 mi North 9.2 mph - N/A   Clear
4:15 PM 48.2 °F - 3.6 °F 16% 30.08 in 10.0 mi NNW 10.4 mph - N/A   Clear
4:35 PM 48.4 °F - 3.9 °F 16% 30.08 in 10.0 mi NW 5.8 mph - N/A   Clear
4:55 PM 47.5 °F - 3.6 °F 17% 30.08 in 10.0 mi NNW 4.6 mph - N/A   Clear
5:15 PM 47.1 °F - 3.2 °F 16% 30.09 in 10.0 mi NNW 5.8 mph - N/A   Clear
5:35 PM 45.7 °F 44.4 °F 4.1 °F 18% 30.09 in 10.0 mi NE 3.5 mph - N/A   Clear
5:55 PM 43.2 °F 41.5 °F 4.6 °F 20% 30.10 in 10.0 mi East 3.5 mph - N/A   Clear
6:15 PM 40.8 °F - 3.9 °F 22% 30.11 in 10.0 mi Calm Calm - N/A   Clear
6:35 PM 42.3 °F 40.5 °F 6.8 °F 23% 30.12 in 10.0 mi WSW 3.5 mph - N/A   Clear
7:15 PM 37.4 °F 32.1 °F 7.0 °F 28% 30.12 in 10.0 mi West 6.9 mph - N/A   Clear
7:35 PM 34.0 °F 28.0 °F 5.9 °F 31% 30.13 in 10.0 mi WNW 6.9 mph - N/A   Clear
7:55 PM 35.1 °F 27.9 °F 7.5 °F 32% 30.13 in 10.0 mi WNW 9.2 mph - N/A   Clear
8:15 PM 33.8 °F 26.4 °F 8.1 °F 34% 30.14 in 10.0 mi WNW 9.2 mph - N/A   Clear
8:35 PM 34.7 °F 28.1 °F 9.5 °F 35% 30.15 in 10.0 mi WNW 8.1 mph - N/A   Clear
8:55 PM 34.7 °F 28.8 °F 9.9 °F 36% 30.15 in 10.0 mi WNW 6.9 mph - N/A   Clear
9:15 PM 32.7 °F 25.7 °F 9.5 °F 38% 30.15 in 10.0 mi NW 8.1 mph - N/A   Clear
9:35 PM 32.7 °F 25.7 °F 10.4 °F 40% 30.15 in 10.0 mi NW 8.1 mph - N/A   Clear
9:55 PM 32.4 °F 25.3 °F 10.8 °F 41% 30.15 in 10.0 mi NW 8.1 mph - N/A   Clear
10:15 PM 32.0 °F 24.8 °F 10.9 °F 42% 30.15 in 10.0 mi NW 8.1 mph - N/A   Clear
10:35 PM 32.0 °F 24.8 °F 10.8 °F 41% 30.15 in 10.0 mi NW 8.1 mph - N/A   Clear
10:55 PM 32.5 °F 24.8 °F 11.3 °F 41% 30.15 in 10.0 mi NW 9.2 mph - N/A   Clear
11:15 PM 32.0 °F 24.8 °F 10.9 °F 42% 30.15 in 10.0 mi NW 8.1 mph - N/A   Clear
11:35 PM 30.0 °F 25.2 °F 10.4 °F 44% 30.15 in 10.0 mi West 4.6 mph - N/A   Clear
11:55 PM 31.3 °F 24.7 °F 11.3 °F 44% 30.15 in 10.0 mi WNW 6.9 mph - N/A   Clear